User: anonymous   Login
Location: Veyrier
(46.1830°N, 6.2000°E)
Time: 08:35:22
(UTC+01:00)
Language:

Iridium 98 - Orbit

View from above orbital plane
View from above orbital plane
View from above satellite
View from above satellite

Ground track
Ground track

The orbit data is extracted from the following two-line orbital elements,

1 27451U 02031B   14304.40527866  .00000655  00000-0  22686-3 0  5646
2 27451 086.3978 063.4356 0002365 111.1525 309.3129 14.34217421653731
Epoch (UTC): 31 October 2014 09:43:36
Eccentricity: 0.0002365
inclination: 86.3978°
perigee height: 776 km
apogee height: 779 km
right ascension of ascending node: 63.4356°
argument of perigee: 111.1525°
revolutions per day: 14.34217421
mean anomaly at epoch: 309.3129°
orbit number at epoch: 65373

The dashed part of the orbit path shows where the satellite is in the earth's shadow,  

DLR